STARLINK-1679, 46557

Orbit data source: Space-Track

STARLINK-1679, 46557 is a payload satellite owned by SpaceX/Seattle (US) in LEO that was launched on Tue, 06 Oct 2020 UTC via an FALCON 9 launch vehicle from the Air Force Eastern Test Range (AFETR). Payload-class satellites include a variety of spacecraft equipped with specific instruments for various scientific and technological missions. These include communications satellites like Starlink; space stations such as the ISS; scientific satellites like the Hubble; Earth observation satellites from companies like Planet Labs, Umbra, and HawkEye 360; GPS; miniature CubeSats for education and research; and military/defense satellites.

Loading next visibility...
Identifier
46557, 2020-070AB
Orbit
LEO
Country
Flag of USUS
Related business
Manufacturer
SpaceX/Seattle
Mission
Operational Commercial Communications
Bus & Motor
STARLINK, Unknown motor
Mass
260 kg wet, ~248 kg dry
Launch date (UTC)
2020-10-06 (5 years ago)
Launch vehicle
FALCON 9
Launch site
Air Force Eastern Test Range (AFETR)
Object type
Payload
Rocket body
Debris
Shape & HBR
Box + 1 Pan, 10.1 m
Radar Cross Section
13.562 m², Large (>1 m²)

Expand to show TLE details & history
Last TLE update: 15 hours ago

TLE from 15 hours ago
0 STARLINK-1679
1 46557U 20070AB  25304.61158079  .00061000  00000-0  20799-2 0  9993
2 46557  53.0590  16.8744 0003799  14.5969 345.5139 15.29799658280318
Epoch: 2025-10-31T14:40Z
TLE epoch observation values (Epoch: 2025-10-31T14:40:40.580Z)
Latitude
-0.00004°
Longitude
116.55177°
Altitude
474.778 km
Speed
7.631 km/s
True Right ascension
01h 07m 29s
True Declination
0° 00' 00"
Sunlit
Object was in full shadow at epoch
Visualization orbit readout
Latitude
Unknown
Longitude
Unknown
Altitude
Unknown
Speed
Unknown
Apparent Right ascension
Unknown
Apparent Declination
Unknown
Sunlit
N/A
Visualization observer readout
Local Sidereal Time
01:14:24
Azimuth
Unknown
Elevation
Unknown
Doppler factor
Unknown
Orbital elements
Apogee altitude
479.288 km
Perigee altitude
474.079 km
Semi-major axis
6,854.82 km
Eccentricity
0.00038
Inclination
53.059°
RAAN
16.8744°
Arg. of periapsis
14.5969°
True anomaly
345.50301°
Mean anomaly
345.5139°
Eccentric anomaly
345.50845°
Mean motion
3.82427 °/min
Orbital period
94.14 mins
BSTAR
0.0020799
Loading maneuver chart data...
Computing Atmospheric mass density...
Loading historical data...
Loading historical data...
Loading historical data...
Loading historical data...
Loading historical data...
Loading historical data...
Loading historical data...

Documentation

Showing up to 5 results
|